Total_Precipitation_Accumulation
0.90 1.50 1.82 1.67 1.64 1.59 1.40 1.36 1.24 1.07 1.03 1.10 1.01 1.00 1.02 1.01 1.00 0.89 0.76 0.64 0.61 0.60 0.56 0.54 0.51 0.53 0.58 0.62 0.67 0.77 0.83 0.99 1.11 1.18 1.31 1.53 1.70 1.86 1.95 2.01 1.87 1.74 1.71 1.86
0.99 1.33 1.03 0.92 1.08 1.13 1.24 1.27 1.12 0.97 0.82 0.86 0.89 0.92 0.92 0.85 0.85 0.75 0.63 0.55 0.47 0.42 0.40 0.38 0.34 0.36 0.40 0.40 0.45 0.55 0.67 0.74 0.88 1.07 1.32 1.54 1.85 1.93 2.01 2.09 2.09 1.99 1.93 2.08
1.07 0.95 0.68 0.77 0.97 1.02 1.04 1.10 1.01 0.94 0.83 0.76 0.75 0.92 0.86 0.79 0.75 0.66 0.52 0.45 0.36 0.29 0.25 0.21 0.22 0.28 0.33 0.32 0.35 0.43 0.56 0.72 0.97 1.21 1.52 1.79 2.09 2.21 2.28 2.24 2.26 2.25 2.26 2.30
0.98 0.73 0.66 0.80 0.88 0.90 1.01 0.75 0.70 0.72 0.90 0.94 0.77 1.08 0.80 0.65 0.64 0.58 0.49 0.45 0.37 0.27 0.22 0.21 0.21 0.24 0.27 0.31 0.37 0.50 0.70 0.92 1.20 1.55 1.91 2.17 2.43 2.57 2.41 2.39 2.40 2.37 2.28 2.28
0.84 0.67 0.65 0.76 0.64 0.61 0.71 0.60 0.71 0.76 0.81 0.77 0.59 0.77 0.70 0.54 0.60 0.53 0.44 0.43 0.42 0.34 0.28 0.26 0.26 0.30 0.37 0.45 0.54 0.72 0.99 1.30 1.58 1.83 2.03 2.28 2.41 2.43 2.38 2.35 2.36 2.26 2.22 2.19
0.60 0.53 0.56 0.54 0.48 0.49 0.54 0.65 0.80 0.82 0.88 0.92 0.52 0.61 0.72 0.55 0.51 0.49 0.44 0.39 0.35 0.33 0.34 0.35 0.37 0.47 0.55 0.63 0.80 0.99 1.18 1.48 1.68 1.82 1.94 2.09 2.23 2.29 2.28 2.29 2.33 2.31 2.27 2.16
0.55 0.47 0.40 0.36 0.45 0.47 0.53 0.93 1.28 1.30 1.22 0.92 0.45 0.64 0.74 0.54 0.42 0.37 0.39 0.37 0.33 0.38 0.45 0.46 0.57 0.72 0.79 0.85 0.98 1.16 1.23 1.43 1.53 1.59 1.71 1.85 1.90 1.94 1.97 1.97 1.98 1.90 1.85 1.84
0.57 0.56 0.39 0.33 0.43 0.50 0.49 0.76 1.28 1.40 1.19 0.86 0.60 0.88 0.79 0.53 0.41 0.39 0.39 0.36 0.40 0.52 0.63 0.73 0.87 0.96 1.04 1.08 1.07 1.13 1.27 1.30 1.29 1.35 1.36 1.48 1.57 1.63 1.67 1.63 1.63 1.68 1.71 1.73
0.48 0.49 0.32 0.27 0.28 0.39 0.50 0.54 0.61 0.89 0.85 0.88 0.83 1.00 0.91 0.54 0.45 0.45 0.44 0.42 0.49 0.66 0.87 1.11 1.30 1.39 1.48 1.44 1.27 1.15 1.16 1.14 1.12 1.22 1.29 1.33 1.38 1.43 1.45 1.46 1.38 1.48 1.51 1.51
0.38 0.48 0.37 0.28 0.31 0.33 0.41 0.54 0.69 1.04 1.24 1.20 1.05 1.15 1.15 0.77 0.62 0.54 0.57 0.64 0.77 0.98 1.31 1.60 1.86 2.03 2.01 1.80 1.55 1.32 1.14 1.06 1.03 1.09 1.18 1.26 1.29 1.29 1.26 1.29 1.21 1.25 1.34 1.33
0.31 0.48 0.43 0.36 0.38 0.41 0.45 0.62 0.78 1.02 1.07 1.34 1.49 1.47 1.19 1.04 0.88 0.81 0.90 1.09 1.28 1.53 1.75 1.95 2.13 2.25 2.05 1.85 1.57 1.31 1.13 1.12 1.14 1.17 1.20 1.22 1.18 1.16 1.14 1.09 1.05 1.10 1.17 1.16
0.26 0.42 0.48 0.32 0.29 0.35 0.57 0.82 1.06 1.46 1.35 1.25 1.52 1.59 1.13 1.00 0.99 1.01 1.12 1.22 1.36 1.49 1.51 1.63 1.74 1.75 1.80 1.74 1.55 1.34 1.22 1.21 1.25 1.27 1.30 1.25 1.19 1.13 1.10 1.06 0.98 0.97 0.93 0.90
0.38 0.58 0.68 0.60 0.61 0.62 0.71 0.77 0.86 1.05 1.18 1.23 1.53 1.60 1.05 0.92 0.90 1.03 1.19 1.25 1.36 1.39 1.30 1.30 1.34 1.45 1.54 1.56 1.46 1.43 1.38 1.39 1.39 1.35 1.23 1.16 1.10 1.02 0.98 0.88 0.83 0.88 0.87 0.92
0.37 0.60 0.73 0.84 0.78 0.70 0.76 0.74 0.67 0.80 1.13 1.14 1.30 1.30 1.07 1.02 0.96 1.00 1.12 1.21 1.17 1.10 1.02 1.02 1.11 1.21 1.30 1.32 1.34 1.31 1.28 1.32 1.42 1.48 1.38 1.26 1.14 1.05 1.01 0.91 0.83 0.81 0.82 0.89
0.29 0.35 0.34 0.33 0.32 0.40 0.63 0.73 0.71 0.71 0.77 1.01 1.03 0.93 0.89 0.89 0.90 0.86 0.88 0.86 0.76 0.70 0.71 0.76 0.82 0.84 0.82 0.80 0.88 0.94 1.02 1.16 1.32 1.47 1.46 1.34 1.17 1.03 0.97 0.93 0.85 0.83 0.83 0.84
0.23 0.26 0.24 0.24 0.22 0.30 0.45 0.55 0.56 0.55 0.55 0.64 0.71 0.72 0.61 0.59 0.63 0.63 0.66 0.62 0.57 0.51 0.47 0.46 0.47 0.48 0.47 0.45 0.45 0.48 0.59 0.76 1.01 1.28 1.28 1.10 0.95 0.80 0.74 0.78 0.80 0.81 0.78 0.83
0.19 0.25 0.32 0.36 0.29 0.30 0.50 0.51 0.47 0.48 0.41 0.42 0.49 0.48 0.44 0.47 0.53 0.54 0.60 0.62 0.49 0.39 0.36 0.34 0.33 0.33 0.33 0.33 0.33 0.37 0.45 0.58 0.76 0.89 0.89 0.81 0.73 0.70 0.75 0.79 0.74 0.74 0.77 0.77
0.19 0.26 0.35 0.38 0.40 0.62 0.78 0.65 0.55 0.51 0.34 0.28 0.29 0.30 0.34 0.45 0.47 0.48 0.46 0.48 0.47 0.35 0.27 0.26 0.26 0.26 0.30 0.32 0.36 0.41 0.48 0.54 0.58 0.61 0.64 0.61 0.60 0.62 0.68 0.71 0.70 0.76 0.80 0.76
0.21 0.33 0.43 0.47 0.54 0.71 0.73 0.61 0.61 0.61 0.47 0.27 0.23 0.24 0.23 0.24 0.26 0.27 0.28 0.27 0.26 0.23 0.19 0.18 0.18 0.18 0.21 0.21 0.23 0.26 0.29 0.31 0.33 0.33 0.35 0.38 0.41 0.43 0.46 0.48 0.55 0.66 0.72 0.74
0.21 0.29 0.44 0.50 0.60 0.72 0.57 0.36 0.36 0.52 0.65 0.26 0.18 0.18 0.16 0.15 0.22 0.23 0.23 0.23 0.19 0.17 0.18 0.18 0.15 0.16 0.18 0.19 0.19 0.18 0.20 0.21 0.22 0.22 0.24 0.27 0.30 0.31 0.32 0.38 0.43 0.50 0.50 0.57
0.24 0.30 0.38 0.46 0.65 0.82 0.60 0.38 0.34 0.60 0.64 0.23 0.15 0.15 0.15 0.17 0.17 0.17 0.19 0.20 0.17 0.16 0.17 0.19 0.18 0.17 0.19 0.21 0.21 0.21 0.22 0.23 0.25 0.28 0.29 0.29 0.28 0.29 0.32 0.37 0.41 0.43 0.46 0.54
0.26 0.35 0.41 0.56 0.87 1.03 0.76 0.53 0.52 0.46 0.23 0.15 0.11 0.12 0.14 0.15 0.14 0.15 0.17 0.18 0.16 0.15 0.16 0.17 0.18 0.20 0.22 0.21 0.21 0.21 0.22 0.24 0.27 0.29 0.31 0.31 0.31 0.32 0.34 0.38 0.42 0.45 0.48 0.51
0.23 0.28 0.35 0.50 0.74 0.75 0.63 0.50 0.39 0.30 0.20 0.12 0.10 0.12 0.16 0.17 0.17 0.19 0.20 0.18 0.17 0.17 0.15 0.15 0.16 0.16 0.18 0.19 0.19 0.19 0.22 0.25 0.27 0.29 0.30 0.32 0.33 0.32 0.31 0.35 0.41 0.45 0.46 0.49
0.22 0.20 0.24 0.28 0.36 0.34 0.33 0.30 0.22 0.19 0.16 0.12 0.12 0.16 0.20 0.22 0.21 0.19 0.20 0.20 0.18 0.17 0.15 0.14 0.15 0.17 0.18 0.19 0.20 0.23 0.24 0.23 0.24 0.30 0.32 0.34 0.33 0.34 0.34 0.36 0.41 0.44 0.47 0.50
0.21 0.22 0.24 0.26 0.24 0.21 0.20 0.20 0.18 0.14 0.11 0.10 0.13 0.18 0.21 0.22 0.22 0.20 0.19 0.21 0.20 0.18 0.18 0.19 0.20 0.19 0.20 0.21 0.24 0.28 0.30 0.28 0.26 0.28 0.31 0.31 0.32 0.36 0.37 0.38 0.40 0.41 0.44 0.53
0.15 0.19 0.25 0.26 0.19 0.21 0.23 0.19 0.15 0.13 0.11 0.10 0.10 0.13 0.17 0.19 0.21 0.20 0.18 0.20 0.22 0.22 0.22 0.23 0.24 0.24 0.24 0.24 0.26 0.29 0.33 0.35 0.35 0.34 0.31 0.30 0.31 0.34 0.36 0.36 0.36 0.39 0.41 0.47